Risultati non inseribili

MOC WEEK END TOUR
tutte le categorie
Cat. stato tempo Nome società motivo
M45classificato00:15:59LOVER DAVID1010MAITESS
M45classificato00:16:31FREDRIKSEN ROBERT1010MAITESS
M45classificato00:16:40PAVLOV ANDREI1001MAITESS
M50non partito00:00:00AEGLER MARK1001MAITESS
M50classificato00:16:57PALMEN HENRIK1003MAITESS
M50classificato00:17:25SPIK PER1007MAITESS
M50classificato00:18:33VIITASAARI SAULI1001MAITESS
M50classificato00:25:31LETYCHEVSKYI OLEKSANDR1000MAITESS
M60non partito00:00:00AESCHLIMANN ULU1003MAITESS
M60classificato00:15:47QUICKFALL ANDY1000MAITESS
M60classificato00:16:54PRANG MAX 1001MAITESS
M60classificato00:19:24MOLSTAD JAN1003MAITESS
M65non partito00:00:00HULTGREN LEIF ROGER1010MAITESS
M65classificato00:15:58SAKSMAN KAI1000MAITESS
M65classificato00:17:46KRISTENSEN DAG1010MAITESS
M65classificato00:18:46GJESTVANG SJUR1010MAITESS
M65classificato00:19:07CATMUR RICHARD1000MAITESS
M65classificato00:19:08JESSEN ROBERT1006MAITESS
M65classificato00:19:13GJERMSTAD TOR HENNING1010MAITESS
M65classificato00:19:47VILLMO ARNULF1010MAITESS
M65classificato00:20:32REKAA SVEINUNG1010MAITESS
M65classificato00:22:36VIRGO CHRIS1001MAITESS
M65classificato00:22:39KOOLMEISTER PETER1001MAITESS
M65classificato00:23:30HANSSON BENGT1001MAITESS
M65classificato00:24:25TAGTSTROM KURT LENNART1001MAITESS
M65classificato00:26:03BJORKAAS ANDERS1010MAITESS
M70classificato00:15:03LIMBENS ILMARS1000MAITESS
M70classificato00:17:47DEWEESE CHARLIE1000MAITESS
M70classificato00:18:01LEINO TAPIO1005MAITESS
M70classificato00:19:16STENSRUD FRODE KRISTOFER1010MAITESS
M70classificato00:19:30FURUHOLT EDGAR MELVIN1010MAITESS
M70classificato00:20:05OWESSON ROY1001MAITESS
M70classificato00:20:47SLIMAN JACQUES1000MAITESS
M70classificato00:21:03GLENDRANGE SVEIN KÅRE1010MAITESS
M70classificato00:21:59ZAUGG HANNES1004MAITESS
M70classificato00:22:03INGEMANSSON GREGER1017MAITESS
M70classificato00:23:16STEINSHOLT PER YNGVE1010MAITESS
M70classificato00:24:53VENNEVIK NILS OLAV1010MAITESS
M70classificato00:26:05GUSTAFSSON ROLF AXEL1001MAITESS
M75classificato00:19:39FJORDHEIM ODD1010MAITESS
M75classificato00:20:51BERG CARL OVE1010MAITESS
M75punzonatura mancante00:21:01DYRNES MOEN ARILD 1010MAITESS
M75classificato00:22:03LANDSTAD MAGNUS BROSTRUP1010MAITESS
M75classificato00:22:08ANDERSSON GORAN1014MAITESS
M75classificato00:23:00GJEIN LARS MARTIN 1010MAITESS
M75classificato00:24:40CEDERUS LARS1013MAITESS
M75classificato00:25:11SJOBERG FOLKE WOLFGANG1001MAITESS
M75classificato00:25:36GRONDAHL ARNE1001MAITESS
M75classificato00:27:27BERGE STIG1010MAITESS
M75classificato00:27:57HVEEM JOHAN ARILD1010MAITESS
Risultati per pagina:

PARTNER UFFICIALI FISO